Location: Wildlife_Club
(35.6000°N, 81.4330°W)
Time: 05:25:58
(UTC-04:00)

Iridium 56 - Visible Passes

Search period start: 05 July 2015 00:00
Search period end: 15 July 2015 00:00
Orbit: 776 x 779 km, 86.4° (Epoch: 04 July)

Date Brightness Start Highest point End Pass type
(mag) Time Alt. Az. Time Alt. Az. Time Alt. Az.
05 Jul 6.3 01:44:03 48° NE 01:44:03 48° NE 01:47:58 10° N visible
05 Jul 7.8 03:24:32 12° WNW 03:24:32 12° WNW 03:26:04 10° NW visible
06 Jul 7.0 01:10:39 29° ENE 01:10:39 29° ENE 01:14:02 10° NNE visible
06 Jul 7.2 02:51:07 22° WNW 02:51:07 22° WNW 02:54:18 10° NNW visible
07 Jul 7.6 00:37:15 16° ENE 00:37:15 16° ENE 00:39:28 10° NE visible
07 Jul 6.6 02:17:43 38° NW 02:17:43 38° NW 02:21:26 10° NNW visible
08 Jul 6.3 01:44:18 50° N 01:44:18 50° N 01:48:07 10° N visible
09 Jul 6.6 01:10:52 38° NE 01:10:52 38° NE 01:14:26 10° NNE visible
09 Jul 7.6 02:51:21 15° WNW 02:51:21 15° WNW 02:53:35 10° NW visible
10 Jul 7.3 00:37:27 23° ENE 00:37:27 23° ENE 00:40:18 10° NNE visible
10 Jul 7.1 02:17:55 27° NW 02:17:55 27° NW 02:21:12 10° NNW visible
11 Jul 7.8 00:04:00 12° ENE 00:04:00 12° ENE 00:05:14 10° NE visible
11 Jul 6.5 01:44:28 42° NNW 01:44:28 42° NNW 01:48:08 10° N visible
12 Jul 6.4 01:11:02 45° NNE 01:11:02 45° NNE 01:14:40 10° N visible
12 Jul 8.0 02:51:30 10° WNW 02:51:30 10° WNW 02:51:43 10° WNW visible
13 Jul 6.9 00:37:35 30° NE 00:37:35 30° NE 00:40:49 10° NNE visible
13 Jul 7.5 02:18:03 19° WNW 02:18:03 19° WNW 02:20:44 10° NNW visible
14 Jul 7.5 00:04:08 18° ENE 00:04:08 18° ENE 00:06:26 10° NE visible
14 Jul 6.9 01:44:36 32° NW 01:44:36 32° NW 01:48:00 10° NNW visible
